Regional Weather Roundup
Issued by NWS Portland, ME

Current Version | Previous Version | Text Only | Print | Product List | Glossary On
Versions: 1 2 3 4 5 6 7 8 9 10 11 12 13 14 15 16 17 18 19 20 21 22 23 24 25 26 27 28 29 30 31 32 33 34 35 36 37 38 39 40 41 42 43 44 45 46 47 48 49 50
000
ASUS41 KGYX 282110
RWRGYX
WEATHER ROUNDUP FOR MAINE AND NEW HAMPSHIRE
NATIONAL WEATHER SERVICE GRAY ME
500 PM EDT THU MAY 28 2015

MEZ002-005-006-010-012-015-018-020-021-024-026-027-029-282200-
MAINE

CITY           SKY/WX    TMP DP  RH WIND       PRES   REMARKS
PORTLAND       TSTM      72  67  84 N12       30.05R VSB 1/2
SANFORD        CLOUDY    72  63  73 W10G30    30.03R THUNDER
BAR HARBOR     MOSUNNY   64  63  94 SW9       30.03S
WISCASSET      TSTM      66  64  93 MISG      30.05R VSB 1
ROCKLAND       MOSUNNY   66  61  82 SW9G16    30.02R
FRYEBURG       PTSUNNY   81  62  52 VRB6      30.01R
LEWISTONAUBURN PTSUNNY   75  66  73 SE7       30.01S
AUGUSTA        MOSUNNY   75  67  76 S9        30.01S
WATERVILLE     PTSUNNY   73  64  73 S3        29.98R
BANGOR         PTSUNNY   70  67  90 CALM      30.03R
GREENVILLE       N/A     70  65  84 CALM      30.01F
MILLINOCKET    CLOUDY    69  66  90 S3        30.01S
HOULTON        CLOUDY    69  66  90 VRB5      29.98S
PRESQUE ISLE   PTSUNNY   75  61  60 NW8       29.97R
FRENCHVILLE    CLOUDY    60  57  89 NW14      30.01R
CARIBOU        LGT RAIN  66  61  84 N10       29.98R
$$

NHZ002-005-008-009-011-012-014-282200-
NEW HAMPSHIRE

CITY           SKY/WX    TMP DP  RH WIND       PRES   REMARKS
PORTSMOUTH     LGT RAIN  85  64  49 SW12G24   29.99R
ROCHESTER      TSTM      71  65  81 W9G18     30.04R
NASHUA         CLOUDY    69  65  87 VRB7      30.07R THUNDER
MANCHESTER     CLOUDY    72  64  76 SW9       30.05R
CONCORD        CLOUDY    75  67  76 W7        30.05S
LACONIA        CLOUDY    73  66  78 S8        30.01F
PLYMOUTH       FAIR      80  64  59 W10       30.03S
BERLIN         CLOUDY    69  57  65 VRB5G23   30.10R
WHITEFIELD     CLOUDY    68  56  65 N9G21     30.11R
JAFFREY        CLOUDY    70  66  87 S8        30.11S
KEENE          PTSUNNY   75  68  78 S3        30.09R
LEBANON        MOSUNNY   77  57  50 NW13G20   30.07R
MT WASHINGTON  LGT RAIN  48  48 100 NW39G46     N/A  VSB 0
$$

VTZ005-007-008-282200-
VERMONT

CITY           SKY/WX    TMP DP  RH WIND       PRES   REMARKS
MONTPELIER     CLOUDY    64  55  72 NW8G16    30.17R
BURLINGTON     PTSUNNY   69  54  58 W10       30.14R
$$

MAZ007-012-024-CTZ003-RIZ002-NYZ038-NYZ072-282200-
SOUTHERN NEW ENGLAND AND NY

CITY           SKY/WX    TMP DP  RH WIND       PRES   REMARKS
BOSTON         PTSUNNY   84  67  56 S20       30.04F
WORCESTER      PTSUNNY   80  63  55 SW12      30.10R
NANTUCKET      CLOUDY    65  58  78 S18       30.17F
PROVIDENCE     PTSUNNY   77  65  66 S17       30.10F
HARTFORD       CLOUDY    80  68  66 S12       30.07F
ALBANY         MOSUNNY   76  54  46 NW16G25   30.16R
NEW YORK CITY  PTSUNNY   81  63  54 S13       30.10F
$$

ANZ081-ANZ082-ANZ150-NHZ014-MEZ023>029-282200-
COASTAL MARINE OBSERVATIONS

STATION/POSITION TIME  TEMP    WIND        PRES    WAVE
                       AIR SEA DIR/SP/G            HT/PER
                 (UTC) (F)     (DEG/KT/KT) (MB)    (FT/S)
MOUNT DESERT ROC 2100   52     180/ 23/ 24   N/A
MATINICUS ROCK   2100   54     200/ 25/ 26   N/A
ISLE OF SHOALS   2100   69     180/ 27/ 29   N/A
JEFFREYS LEDGE   2003      50                N/A     4/ 5
CASHES LEDGE BUO 2050   56 51                N/A     5/ 6
GEORGES BANK BUO 2050   56 53  180/  6/  8   N/A     4/ 6
$$

.............KEY..............
   WCI - WIND CHILL
   TC  - TEMPERATURE IN CELSIUS
   VSB - VISIBILITY IN MILES
   HX  - HEAT INDEX
   FAIR- INDICATES FEW OR NO CLOUDS BELOW 12,000 FT, WITH NO
         SIGNIFICANT WEATHER AND/OR OBSTRUCTIONS TO VISIBILITY.





USA.gov is the U.S. government's official web portal to all federal, state and local government web resources and services.